[[{"header":{"parameterUnit":"m.s-1","parameterCategory":1,"la1":30.2991,"la2":30.254,"lo1":-89.0895,"lo2":-89.0444,"dy":0.0017,"dx":0.0017,"nx":28,"ny":28,"refTime":"2023-07-22T09:00:00:Z","depth":0,"parameterNumber":2,"parameterNumberName":"U-component_of_WINDS"},"data":[0,0,0,0,0,0,0,0,0,0,0,0,0,0,0,0,0,0,0,0,0,0,0,0,0,0,0,0,0,0,0,0,0,0,0,0,0,0,0,0,0,0,0,0,0,0,0,0,0,0,0,0,0,0,0,0,0,0,2.7926,2.7925,0,2.7844,2.7843,2.7842,2.7708,2.7706,2.7703,2.7701,2.7618,2.7618,2.7618,0,0,0,0,0,0,0,0,0,0,0,0,0,2.7968,2.7968,2.7926,2.7925,2.7924,2.7844,2.7843,2.7842,2.7709,2.7706,2.7703,2.77,2.7618,2.7618,2.7618,0,0,0,0,0,0,0,0,0,0,0,0,0,2.7925,2.7968,2.7926,2.7848,2.784,2.7844,2.7843,2.7841,2.7709,2.7706,2.7702,2.7699,2.7618,2.7618,2.7618,2.7692,0,0,2.7619,2.7619,0,0,0,0,0,0,0,0,2.7927,2.7923,2.786,2.7853,2.7845,2.7782,2.7827,2.7792,2.771,2.7759,2.7701,2.7697,2.7676,2.7671,2.7664,2.7689,2.7685,2.7619,2.7619,2.7619,2.7619,0,0,0,0,0,0,0,2.7931,2.7926,2.7893,2.786,2.785,2.7817,2.7807,2.782,2.7739,2.7755,2.7745,2.7737,2.7671,2.7664,2.7661,2.7684,2.7619,2.7619,2.7619,2.7619,2.7765,2.7768,0,0,0,0,0,0,2.7945,2.7929,2.7896,2.7891,2.7878,2.7819,2.7808,2.7806,2.7739,2.7725,2.774,2.7731,2.7665,2.7661,2.7657,2.7739,2.7619,2.7619,2.7619,2.7761,2.7766,2.777,0,0,0,0,0,0,2.7946,2.7943,2.7899,2.7908,2.7899,2.7823,2.7822,2.7807,2.7799,2.7727,2.7712,2.7748,2.7662,2.7657,2.7684,2.7735,2.7619,2.7619,2.7757,2.7762,2.7768,2.7905,0,0,0,0,0,0,2.7948,2.7945,2.7972,2.7909,2.79,2.7928,2.7825,2.7808,2.78,2.7787,2.7731,2.7718,2.7659,2.7685,2.7685,2.7733,2.7619,2.7752,2.7759,2.7766,2.7895,2.7914,2.7931,0,0,0,0,0,2.795,2.8014,2.7974,2.7971,2.7932,2.7932,2.7926,2.7857,2.7804,2.7831,2.7785,2.772,2.7729,2.7689,2.7687,2.7736,2.7748,2.7757,2.7765,2.7887,2.7911,2.793,0,0,0,0,0,0,2.8085,2.8004,2.7959,2.8005,2.7976,2.7909,2.7941,2.7884,2.7869,2.7858,2.7773,2.7761,2.78,2.777,2.7727,2.7804,2.7729,2.7737,2.7822,2.7843,2.7861,2.7867,2.7619,0,0,0,0,0,2.812,2.8126,2.8055,2.8102,2.809,2.8019,2.8016,2.7965,2.7932,2.7919,2.7875,2.7845,2.7841,2.7841,2.7833,2.789,2.7876,2.7923,2.7941,2.7956,2.7964,2.7992,2.8012,2.7798,2.7798,2.7798,0,0,2.8193,2.8149,2.8159,2.8129,2.81,2.8109,2.8009,2.8022,2.8028,2.7921,2.7944,2.7911,2.7872,2.7915,2.7931,2.7892,2.802,2.7967,2.7979,2.7979,2.8003,2.8023,2.8041,2.7804,2.7803,2.7802,0,0,2.8329,2.8297,2.8332,2.8306,2.8264,2.8216,2.8225,2.8167,2.814,2.8162,2.8082,2.8087,2.8082,2.8058,2.8045,2.8173,2.8112,2.8173,2.8265,2.8293,2.831,2.8324,2.8369,2.8387,2.8181,2.8182,2.8182,0,2.8425,2.8434,2.8358,2.8376,2.8365,2.8269,2.8304,2.8282,2.8241,2.8236,2.8191,2.8183,2.8151,2.8186,2.8217,2.821,2.8217,2.8179,2.8313,2.8327,2.834,2.8382,2.8399,2.8189,2.8188,2.8188,2.8187,0,2.8553,2.8561,2.8595,2.8556,2.8549,2.8576,2.8505,2.8507,2.8456,2.8413,2.8436,2.8393,2.8375,2.838,2.8331,2.8409,2.8385,2.8329,2.8251,2.8369,2.8407,2.8422,2.82,2.8197,2.8195,2.8193,0,0,2.8773,2.8692,2.8706,2.8687,2.8634,2.8638,2.8661,2.8643,2.8646,2.8621,2.8637,2.8635,2.8583,2.8568,2.8516,2.854,2.8644,2.848,2.8478,2.8512,2.8726,2.8769,2.8789,2.8603,2.8606,2.8608,2.8729,0,2.8898,2.8931,2.8864,2.8914,2.892,2.8828,2.8847,2.8817,2.8777,2.8776,2.8732,2.8732,2.8662,2.8653,2.8673,2.8627,2.8685,2.8617,2.8617,2.8618,2.863,2.8808,2.8854,2.897,2.8743,2.8746,2.8748,0,2.9049,2.9031,2.9081,2.9025,2.9025,2.9043,2.9021,2.9022,2.8985,2.8954,2.8939,2.8877,2.8895,2.882,2.8843,2.8798,2.8794,2.8772,2.8775,2.8772,2.869,2.8811,2.9006,2.9023,2.877,2.8768,2.8767,0,2.9204,2.9192,2.922,2.9207,2.9142,2.9158,2.9131,2.9091,2.9085,2.9065,2.906,2.9044,2.9035,2.9023,2.8959,2.891,2.899,2.891,2.8964,2.8966,2.8985,2.8985,2.9183,2.8984,2.8983,2.8983,2.8983,0,2.9351,2.9386,2.9289,2.9307,2.9343,2.9265,2.9302,2.9267,2.9232,2.9241,2.916,2.9171,2.9084,2.9085,2.9035,2.9062,2.9058,2.9034,2.902,2.9041,2.9044,2.9037,2.9027,2.8987,2.8987,2.8986,2.8985,0,2.9531,2.9467,2.9492,2.9428,2.9413,2.9442,2.9388,2.9401,2.9356,2.9368,2.9367,2.9296,2.9292,2.9227,2.9209,2.9175,2.9223,2.9194,2.9235,2.9226,2.9284,2.928,2.9484,2.9507,2.9294,2.9296,2.9298,0,2.9629,2.9653,2.9592,2.9592,2.9569,2.9571,2.9563,2.9487,2.9483,2.9443,2.9462,2.9452,2.944,2.9439,2.9386,2.9372,2.9342,2.9415,2.9339,2.936,2.9343,2.9342,2.9344,2.9431,2.9434,2.9436,2.9437,0,2.981,2.9777,2.977,2.9752,2.9745,2.9727,2.9704,2.9709,2.9625,2.9625,2.962,2.9611,2.9593,2.9584,2.9561,2.9533,2.9472,2.9462,2.9473,2.9495,2.9518,2.9506,2.9278,2.9457,2.9455,2.9454,2.9453,2.9452,2.9951,2.9968,2.9928,2.9922,2.9897,2.9877,2.9887,2.9842,2.9837,2.9816,2.9772,2.9774,2.9736,2.9699,2.9676,2.9677,2.964,2.9657,2.9662,2.9667,2.9679,2.9518,2.9673,2.9672,2.9671,2.9671,2.967,0,3.0128,3.0097,3.0093,3.0063,3.0059,3.0001,2.9972,2.9972,2.9975,2.9945,2.9935,2.993,2.992,2.9867,2.9851,2.9862,2.9834,2.9861,2.9859,2.9854,2.9713,2.9704,2.9884,2.9884,2.9884,2.9884,2.9884,2.9884,3.022,3.0245,3.0208,3.0221,3.0189,3.0191,3.0179,3.0161,3.0136,3.0134,3.0126,3.009,3.0051,3.0032,3.0021,3.0005,3.0003,3.004,3.0015,2.9884,2.9864,2.9844,2.9835,3.004,3.004,3.0155,3.0156,3.0157]},{"header":{"parameterUnit":"m.s-1","parameterCategory":1,"la1":30.2991,"la2":30.254,"lo1":-89.0895,"lo2":-89.0444,"dy":0.0017,"dx":0.0017,"nx":28,"ny":28,"refTime":"2023-07-22T09:00:00:Z","depth":0,"parameterNumber":3,"parameterNumberName":"V-component_of_WINDS"},"data":[0,0,0,0,0,0,0,0,0,0,0,0,0,0,0,0,0,0,0,0,0,0,0,0,0,0,0,0,0,0,0,0,0,0,0,0,0,0,0,0,0,0,0,0,0,0,0,0,0,0,0,0,0,0,0,0,0,0,-1.14,-1.14,0,-1.1437,-1.1437,-1.1438,-1.1441,-1.144,-1.144,-1.1439,-1.1477,-1.1478,-1.148,0,0,0,0,0,0,0,0,0,0,0,0,0,-1.1332,-1.1333,-1.14,-1.14,-1.1401,-1.1437,-1.1437,-1.1438,-1.1441,-1.144,-1.144,-1.1439,-1.1476,-1.1478,-1.148,0,0,0,0,0,0,0,0,0,0,0,0,0,-1.1364,-1.1333,-1.14,-1.1407,-1.1408,-1.1437,-1.1437,-1.1438,-1.1441,-1.144,-1.144,-1.1439,-1.1476,-1.1478,-1.148,-1.1505,0,0,-1.1486,-1.1487,0,0,0,0,0,0,0,0,-1.1362,-1.1367,-1.1405,-1.1406,-1.1407,-1.1434,-1.1427,-1.146,-1.1441,-1.1428,-1.1439,-1.1439,-1.1463,-1.1466,-1.1474,-1.1506,-1.1508,-1.1486,-1.1488,-1.1488,-1.1489,0,0,0,0,0,0,0,-1.136,-1.1365,-1.1414,-1.1406,-1.1407,-1.1408,-1.1412,-1.1433,-1.1448,-1.1429,-1.143,-1.1434,-1.1463,-1.1472,-1.1475,-1.1508,-1.1486,-1.1488,-1.1489,-1.149,-1.1563,-1.1564,0,0,0,0,0,0,-1.1357,-1.1363,-1.1413,-1.1416,-1.1383,-1.1409,-1.1414,-1.1426,-1.1448,-1.1451,-1.1434,-1.1434,-1.1469,-1.1473,-1.1476,-1.1507,-1.1488,-1.149,-1.1492,-1.1562,-1.1563,-1.1564,0,0,0,0,0,0,-1.1355,-1.1361,-1.1412,-1.139,-1.1396,-1.1411,-1.1425,-1.1427,-1.1436,-1.1452,-1.1455,-1.1441,-1.1469,-1.1474,-1.1498,-1.1508,-1.1491,-1.1493,-1.1561,-1.1562,-1.1563,-1.1568,0,0,0,0,0,0,-1.1353,-1.1361,-1.137,-1.139,-1.1397,-1.1432,-1.1425,-1.1428,-1.1439,-1.1439,-1.1459,-1.1461,-1.1469,-1.1495,-1.15,-1.1511,-1.1495,-1.156,-1.1562,-1.1563,-1.1567,-1.1569,-1.1571,0,0,0,0,0,-1.1351,-1.137,-1.1371,-1.1377,-1.141,-1.1433,-1.1437,-1.1445,-1.144,-1.145,-1.146,-1.1461,-1.1506,-1.1497,-1.1503,-1.1515,-1.156,-1.1561,-1.1563,-1.1566,-1.1568,-1.1571,0,0,0,0,0,0,-1.1351,-1.1372,-1.1374,-1.1399,-1.1414,-1.1433,-1.1446,-1.1448,-1.1464,-1.1463,-1.1473,-1.1477,-1.1501,-1.151,-1.1499,-1.154,-1.1532,-1.1535,-1.1533,-1.1535,-1.1537,-1.1534,-1.1496,0,0,0,0,0,-1.1354,-1.1371,-1.1389,-1.141,-1.1418,-1.1431,-1.1441,-1.1446,-1.1462,-1.1468,-1.1481,-1.1496,-1.1513,-1.1525,-1.1542,-1.1568,-1.1573,-1.1579,-1.1581,-1.1583,-1.1585,-1.16,-1.1603,-1.1569,-1.1569,-1.1569,0,0,-1.136,-1.1374,-1.1384,-1.1411,-1.1423,-1.144,-1.1436,-1.1455,-1.1468,-1.1471,-1.1494,-1.1504,-1.1522,-1.1547,-1.1559,-1.1555,-1.1595,-1.1585,-1.1586,-1.1587,-1.1601,-1.1605,-1.1607,-1.157,-1.157,-1.157,0,0,-1.1381,-1.1393,-1.1412,-1.1424,-1.1443,-1.1452,-1.1456,-1.1475,-1.1482,-1.1505,-1.1508,-1.1524,-1.1554,-1.1567,-1.1577,-1.1603,-1.1604,-1.1608,-1.1618,-1.1632,-1.1635,-1.1637,-1.1647,-1.165,-1.1611,-1.1611,-1.1611,0,-1.1386,-1.1413,-1.1422,-1.1441,-1.1452,-1.1456,-1.1475,-1.1487,-1.151,-1.1518,-1.1514,-1.1552,-1.1564,-1.1592,-1.1599,-1.1607,-1.1612,-1.1606,-1.1634,-1.1636,-1.1639,-1.1648,-1.1651,-1.1611,-1.1611,-1.1611,-1.1611,0,-1.1419,-1.1438,-1.1451,-1.1473,-1.1486,-1.1505,-1.1516,-1.1529,-1.1533,-1.1541,-1.1566,-1.158,-1.1601,-1.1608,-1.1612,-1.1637,-1.1634,-1.1632,-1.1625,-1.1642,-1.1651,-1.1654,-1.1612,-1.1611,-1.1611,-1.1611,0,0,-1.144,-1.1467,-1.1472,-1.1482,-1.1503,-1.1518,-1.1537,-1.1557,-1.1567,-1.1583,-1.16,-1.1625,-1.1624,-1.1635,-1.1641,-1.1653,-1.1673,-1.165,-1.165,-1.1653,-1.1701,-1.1702,-1.1706,-1.1674,-1.1674,-1.1675,-1.17,0,-1.1463,-1.1497,-1.1506,-1.1535,-1.1552,-1.1557,-1.1573,-1.1588,-1.1597,-1.1613,-1.1623,-1.1641,-1.1637,-1.1644,-1.1657,-1.1668,-1.1682,-1.1666,-1.1689,-1.1689,-1.1684,-1.1711,-1.1712,-1.1735,-1.1703,-1.1703,-1.1704,0,-1.1494,-1.1511,-1.1542,-1.1561,-1.1569,-1.1583,-1.1603,-1.1618,-1.1635,-1.164,-1.1654,-1.1658,-1.1678,-1.167,-1.1698,-1.1687,-1.1697,-1.1703,-1.1705,-1.1707,-1.1697,-1.1713,-1.1742,-1.1745,-1.1709,-1.1709,-1.1708,0,-1.1506,-1.1537,-1.1559,-1.1568,-1.1591,-1.1601,-1.1611,-1.1627,-1.1639,-1.1656,-1.1663,-1.1682,-1.1692,-1.1707,-1.1716,-1.171,-1.1743,-1.1736,-1.1749,-1.1748,-1.1755,-1.1755,-1.1786,-1.1762,-1.1762,-1.1762,-1.1762,0,-1.1531,-1.155,-1.1565,-1.1579,-1.16,-1.161,-1.1631,-1.1641,-1.1655,-1.1671,-1.1676,-1.1691,-1.1702,-1.1718,-1.1726,-1.1748,-1.1752,-1.1758,-1.1759,-1.1757,-1.1756,-1.1763,-1.1762,-1.1763,-1.1763,-1.1762,-1.1762,0,-1.1548,-1.1559,-1.1584,-1.1603,-1.1609,-1.1624,-1.164,-1.1654,-1.1663,-1.1683,-1.1688,-1.1703,-1.1722,-1.1733,-1.1758,-1.1763,-1.1787,-1.1788,-1.1782,-1.1782,-1.1794,-1.1793,-1.1831,-1.1836,-1.1809,-1.1809,-1.1809,0,-1.1563,-1.1577,-1.1598,-1.1609,-1.162,-1.1637,-1.1649,-1.1659,-1.1671,-1.1692,-1.1703,-1.1723,-1.1739,-1.177,-1.1783,-1.1802,-1.1803,-1.1815,-1.1806,-1.1803,-1.1803,-1.1802,-1.1804,-1.1817,-1.1817,-1.1817,-1.1817,0,-1.1588,-1.1593,-1.161,-1.1629,-1.1643,-1.1658,-1.1674,-1.1683,-1.1695,-1.1709,-1.1729,-1.1742,-1.1767,-1.1787,-1.1806,-1.1817,-1.1819,-1.182,-1.1824,-1.1822,-1.1817,-1.182,-1.1786,-1.1819,-1.1819,-1.1819,-1.1819,-1.1819,-1.1604,-1.1617,-1.1634,-1.1653,-1.1666,-1.168,-1.1694,-1.1705,-1.1722,-1.1743,-1.1748,-1.177,-1.1786,-1.1813,-1.1824,-1.1841,-1.1838,-1.1844,-1.1845,-1.1847,-1.1847,-1.1815,-1.1844,-1.1844,-1.1844,-1.1844,-1.1844,0,-1.1629,-1.164,-1.1658,-1.1679,-1.1694,-1.1695,-1.1713,-1.1725,-1.1744,-1.1759,-1.1775,-1.1798,-1.1818,-1.1832,-1.1851,-1.1862,-1.1864,-1.1867,-1.1866,-1.1869,-1.1848,-1.1843,-1.1865,-1.1865,-1.1865,-1.1865,-1.1865,-1.1865,-1.1644,-1.1667,-1.1674,-1.1702,-1.1714,-1.1734,-1.1744,-1.1757,-1.177,-1.1796,-1.1812,-1.1821,-1.1836,-1.1857,-1.1874,-1.1878,-1.1885,-1.1888,-1.1892,-1.1872,-1.187,-1.1868,-1.1863,-1.1889,-1.1889,-1.1911,-1.1911,-1.1911]}]]